START_TIME,STEP,MOV.,M35,t_acc.,PL05,t_acc.,PL06,t_acc.,PL07,t_acc.
1986-01-25 21:00:25.260 ,5,0,0.,4.8,1.,4.8,0.,4.8,0.,4.8
1986-01-25 21:00:30.060 ,5,0,0.,4.8,1.,4.8,0.,4.8,0.,4.8
1986-01-25 21:00:34.860 ,5,0,0.,4.8,0.,4.8,1.,4.8,0.,4.8
1986-01-25 21:00:39.660 ,5,0,0.,4.8,0.,4.8,0.,4.8,1.,4.8
1986-01-25 21:00:44.460 ,5,0,0.,4.8,1.,4.8,0.,4.8,0.,4.8
1986-01-25 21:00:49.260 ,4,0,0.,4.8,0.,4.8,0.,4.8,0.,4.8
1986-01-25 21:00:54.060 ,4,0,0.,4.8,1.,4.8,0.,4.8,0.,4.8
1986-01-25 21:00:58.860 ,4,0,0.,4.8,2.,4.8,0.,4.8,0.,4.8
1986-01-25 21:01:03.660 ,4,0,0.,4.8,1.,4.8,0.,4.8,0.,4.8
1986-01-25 21:01:08.460 ,4,0,0.,4.8,1.,4.8,0.,4.8,0.,4.8
1986-01-25 21:01:13.260 ,4,0,0.,4.8,3.,4.8,0.,4.8,0.,4.8
1986-01-25 21:01:18.060 ,4,0,0.,4.8,0.,4.8,0.,4.8,0.,4.8
1986-01-25 21:01:22.860 ,4,0,0.,4.8,0.,4.8,0.,4.8,0.,4.8
1986-01-25 21:01:27.660 ,4,0,0.,4.8,1.,4.8,0.,4.8,0.,4.8
1986-01-25 21:01:32.460 ,4,0,0.,4.8,0.,4.8,0.,4.8,0.,4.8
1986-01-25 21:01:37.260 ,3,0,0.,4.8,1.,4.8,0.,4.8,0.,4.8
1986-01-25 21:01:42.060 ,3,0,0.,4.8,0.,4.8,0.,4.8,0.,4.8
1986-01-25 21:01:46.860 ,3,0,0.,4.8,0.,4.8,0.,4.8,0.,4.8
1986-01-25 21:01:51.660 ,3,0,0.,4.8,0.,4.8,0.,4.8,0.,4.8
1986-01-25 21:01:56.460 ,3,0,0.,4.8,2.,4.8,0.,4.8,0.,4.8
1986-01-25 21:02:01.260 ,3,0,0.,4.8,1.,4.8,0.,4.8,0.,4.8
1986-01-25 21:02:06.060 ,3,0,0.,4.8,0.,4.8,1.,4.8,0.,4.8
1986-01-25 21:02:10.860 ,3,0,0.,4.8,0.,4.8,0.,4.8,0.,4.8
1986-01-25 21:02:15.660 ,3,0,0.,4.8,0.,4.8,0.,4.8,0.,4.8
1986-01-25 21:02:20.460 ,3,0,0.,4.8,0.,4.8,0.,4.8,0.,4.8
1986-01-25 21:02:25.260 ,2,0,0.,4.8,2.,4.8,0.,4.8,0.,4.8
1986-01-25 21:02:30.050 ,2,0,0.,4.8,1.,4.8,1.,4.8,0.,4.8
1986-01-25 21:02:34.860 ,2,0,0.,4.8,1.,4.8,0.,4.8,0.,4.8
1986-01-25 21:02:39.650 ,2,0,0.,4.8,1.,4.8,0.,4.8,0.,4.8
1986-01-25 21:02:44.460 ,2,0,0.,4.8,0.,4.8,0.,4.8,0.,4.8
1986-01-25 21:02:49.260 ,2,0,0.,4.8,2.,4.8,1.,4.8,0.,4.8
1986-01-25 21:02:54.060 ,2,0,0.,4.8,1.,4.8,0.,4.8,0.,4.8
1986-01-25 21:02:58.860 ,2,0,0.,4.8,0.,4.8,0.,4.8,0.,4.8
1986-01-25 21:03:03.650 ,2,0,0.,4.8,0.,4.8,0.,4.8,0.,4.8
1986-01-25 21:03:08.460 ,2,0,0.,4.8,0.,4.8,0.,4.8,0.,4.8
1986-01-25 21:03:13.250 ,1,0,0.,4.8,1.,4.8,0.,4.8,0.,4.8
1986-01-25 21:03:18.050 ,1,0,0.,4.8,3.,4.8,0.,4.8,0.,4.8
1986-01-25 21:03:22.850 ,1,0,0.,4.8,0.,4.8,1.,4.8,0.,4.8
1986-01-25 21:03:27.650 ,1,0,0.,4.8,1.,4.8,0.,4.8,0.,4.8
1986-01-25 21:03:32.460 ,1,0,0.,4.8,2.,4.8,0.,4.8,0.,4.8
1986-01-25 21:03:37.260 ,1,0,0.,4.8,1.,4.8,0.,4.8,0.,4.8
1986-01-25 21:03:42.050 ,1,0,0.,4.8,0.,4.8,0.,4.8,0.,4.8
1986-01-25 21:03:46.860 ,1,0,0.,4.8,1.,4.8,0.,4.8,0.,4.8
1986-01-25 21:03:51.650 ,1,0,0.,4.8,0.,4.8,0.,4.8,0.,4.8
1986-01-25 21:03:56.460 ,1,0,0.,4.8,0.,4.8,0.,4.8,0.,4.8
1986-01-25 21:04:01.260 ,0,0,0.,4.8,0.,4.8,0.,4.8,0.,4.8
1986-01-25 21:04:06.050 ,0,0,0.,4.8,1.,4.8,1.,4.8,0.,4.8
1986-01-25 21:04:10.850 ,0,0,0.,4.8,1.,4.8,0.,4.8,0.,4.8
1986-01-25 21:04:15.660 ,0,0,0.,4.8,0.,4.8,0.,4.8,0.,4.8
1986-01-25 21:04:20.460 ,0,0,0.,4.8,0.,4.8,0.,4.8,0.,4.8
1986-01-25 21:04:25.260 ,0,0,0.,4.8,1.,4.8,0.,4.8,0.,4.8
1986-01-25 21:04:30.060 ,0,0,0.,4.8,1.,4.8,0.,4.8,0.,4.8
1986-01-25 21:04:34.860 ,0,0,0.,4.8,1.,4.8,0.,4.8,0.,4.8
1986-01-25 21:04:39.660 ,0,0,0.,4.8,1.,4.8,0.,4.8,0.,4.8
1986-01-25 21:04:44.460 ,0,0,0.,4.8,2.,4.8,0.,4.8,0.,4.8
1986-01-25 21:04:49.250 ,0,0,0.,4.8,2.,4.8,0.,4.8,0.,4.8
1986-01-25 21:04:54.050 ,0,0,0.,4.8,0.,4.8,0.,4.8,1.,4.8
1986-01-25 21:04:58.850 ,0,0,0.,4.8,1.,4.8,0.,4.8,0.,4.8
1986-01-25 21:05:03.650 ,0,0,0.,4.8,0.,4.8,0.,4.8,0.,4.8
1986-01-25 21:05:08.450 ,0,0,0.,4.8,1.,4.8,0.,4.8,0.,4.8
1986-01-25 21:05:13.250 ,0,0,0.,4.8,4.,4.8,0.,4.8,0.,4.8
1986-01-25 21:05:18.050 ,0,0,0.,4.8,0.,4.8,0.,4.8,0.,4.8
1986-01-25 21:05:22.850 ,0,0,0.,4.8,2.,4.8,1.,4.8,0.,4.8
1986-01-25 21:05:27.650 ,0,0,0.,4.8,0.,4.8,0.,4.8,0.,4.8
1986-01-25 21:05:32.450 ,0,0,0.,4.8,2.,4.8,0.,4.8,0.,4.8
1986-01-25 21:05:37.250 ,1,0,0.,4.8,1.,4.8,0.,4.8,0.,4.8
1986-01-25 21:05:42.050 ,1,0,0.,4.8,1.,4.8,0.,4.8,0.,4.8
1986-01-25 21:05:46.850 ,1,0,0.,4.8,1.,4.8,0.,4.8,0.,4.8
1986-01-25 21:05:51.650 ,1,0,0.,4.8,0.,4.8,1.,4.8,0.,4.8
1986-01-25 21:05:56.450 ,1,0,0.,4.8,0.,4.8,0.,4.8,0.,4.8
1986-01-25 21:06:01.250 ,1,0,0.,4.8,0.,4.8,1.,4.8,0.,4.8
1986-01-25 21:06:06.050 ,1,0,0.,4.8,1.,4.8,0.,4.8,0.,4.8
1986-01-25 21:06:10.850 ,1,0,0.,4.8,2.,4.8,0.,4.8,0.,4.8
1986-01-25 21:06:15.650 ,1,0,0.,4.8,0.,4.8,0.,4.8,0.,4.8
1986-01-25 21:06:20.450 ,1,0,0.,4.8,1.,4.8,0.,4.8,0.,4.8
1986-01-25 21:06:25.250 ,2,0,0.,4.8,0.,4.8,0.,4.8,0.,4.8
1986-01-25 21:06:30.050 ,2,0,0.,4.8,0.,4.8,1.,4.8,0.,4.8
1986-01-25 21:06:34.850 ,2,0,0.,4.8,1.,4.8,1.,4.8,0.,4.8
1986-01-25 21:06:39.650 ,2,0,0.,4.8,0.,4.8,0.,4.8,0.,4.8
1986-01-25 21:06:44.450 ,2,0,0.,4.8,1.,4.8,0.,4.8,0.,4.8
1986-01-25 21:06:49.250 ,2,0,0.,4.8,1.,4.8,1.,4.8,0.,4.8
1986-01-25 21:06:54.050 ,2,0,0.,4.8,0.,4.8,0.,4.8,0.,4.8
1986-01-25 21:06:58.850 ,2,0,0.,4.8,1.,4.8,0.,4.8,0.,4.8
1986-01-25 21:07:03.650 ,2,0,0.,4.8,0.,4.8,0.,4.8,0.,4.8
1986-01-25 21:07:08.450 ,2,0,0.,4.8,2.,4.8,0.,4.8,0.,4.8
1986-01-25 21:07:13.250 ,3,0,0.,4.8,0.,4.8,0.,4.8,0.,4.8
1986-01-25 21:07:18.050 ,3,0,0.,4.8,0.,4.8,0.,4.8,0.,4.8
1986-01-25 21:07:22.850 ,3,0,0.,4.8,0.,4.8,0.,4.8,0.,4.8
1986-01-25 21:07:27.650 ,3,0,0.,4.8,0.,4.8,0.,4.8,0.,4.8
1986-01-25 21:07:32.450 ,3,0,0.,4.8,0.,4.8,0.,4.8,0.,4.8
1986-01-25 21:07:37.250 ,3,0,0.,4.8,0.,4.8,0.,4.8,0.,4.8
1986-01-25 21:07:42.050 ,3,0,0.,4.8,0.,4.8,0.,4.8,0.,4.8
1986-01-25 21:07:46.850 ,3,0,0.,4.8,1.,4.8,0.,4.8,0.,4.8
1986-01-25 21:07:51.650 ,3,0,0.,4.8,0.,4.8,0.,4.8,1.,4.8
1986-01-25 21:07:56.450 ,3,0,0.,4.8,0.,4.8,0.,4.8,0.,4.8
1986-01-25 21:08:01.250 ,4,0,0.,4.8,1.,4.8,0.,4.8,0.,4.8
1986-01-25 21:08:06.050 ,4,0,0.,4.8,1.,4.8,0.,4.8,0.,4.8
1986-01-25 21:08:10.850 ,4,0,0.,4.8,1.,4.8,0.,4.8,0.,4.8
1986-01-25 21:08:15.650 ,4,0,0.,4.8,1.,4.8,0.,4.8,0.,4.8
1986-01-25 21:08:20.450 ,4,0,0.,4.8,0.,4.8,0.,4.8,0.,4.8
1986-01-25 21:08:25.250 ,4,0,0.,4.8,0.,4.8,0.,4.8,0.,4.8
1986-01-25 21:08:30.050 ,4,0,0.,4.8,0.,4.8,0.,4.8,0.,4.8
1986-01-25 21:08:34.850 ,4,0,0.,4.8,1.,4.8,0.,4.8,0.,4.8
1986-01-25 21:08:39.650 ,4,0,0.,4.8,0.,4.8,0.,4.8,0.,4.8
1986-01-25 21:08:44.450 ,4,0,0.,4.8,0.,4.8,0.,4.8,0.,4.8
1986-01-25 21:08:49.250 ,5,0,0.,4.8,0.,4.8,0.,4.8,0.,4.8
1986-01-25 21:08:54.050 ,5,0,0.,4.8,1.,4.8,0.,4.8,0.,4.8
1986-01-25 21:08:58.850 ,5,0,0.,4.8,0.,4.8,0.,4.8,0.,4.8
1986-01-25 21:09:03.650 ,5,0,0.,4.8,0.,4.8,0.,4.8,0.,4.8
1986-01-25 21:09:08.450 ,5,0,0.,4.8,0.,4.8,0.,4.8,0.,4.8
1986-01-25 21:09:13.250 ,5,0,0.,4.8,1.,4.8,0.,4.8,0.,4.8
1986-01-25 21:09:18.050 ,5,0,0.,4.8,0.,4.8,0.,4.8,0.,4.8
1986-01-25 21:09:22.850 ,5,0,0.,4.8,0.,4.8,0.,4.8,1.,4.8
1986-01-25 21:09:27.650 ,5,0,0.,4.8,0.,4.8,0.,4.8,1.,4.8
1986-01-25 21:09:32.450 ,5,0,0.,4.8,0.,4.8,0.,4.8,0.,4.8
1986-01-25 21:09:37.250 ,6,0,0.,4.8,2.,4.8,0.,4.8,0.,4.8
1986-01-25 21:09:42.050 ,6,0,0.,4.8,0.,4.8,0.,4.8,0.,4.8
1986-01-25 21:09:46.850 ,6,0,0.,4.8,1.,4.8,0.,4.8,0.,4.8
1986-01-25 21:09:51.650 ,6,0,0.,4.8,1.,4.8,0.,4.8,0.,4.8
1986-01-25 21:09:56.450 ,6,0,0.,4.8,0.,4.8,0.,4.8,0.,4.8
1986-01-25 21:10:01.250 ,6,0,0.,4.8,3.,4.8,0.,4.8,0.,4.8
1986-01-25 21:10:06.050 ,6,0,0.,4.8,0.,4.8,0.,4.8,0.,4.8
1986-01-25 21:10:10.850 ,6,0,0.,4.8,1.,4.8,0.,4.8,0.,4.8
1986-01-25 21:10:15.650 ,6,0,0.,4.8,1.,4.8,0.,4.8,0.,4.8
1986-01-25 21:10:20.450 ,6,0,0.,4.8,1.,4.8,0.,4.8,0.,4.8
1986-01-25 21:10:25.250 ,7,0,0.,4.8,0.,4.8,0.,4.8,0.,4.8
1986-01-25 21:10:30.050 ,7,0,0.,4.8,0.,4.8,0.,4.8,0.,4.8
1986-01-25 21:10:34.850 ,7,0,0.,4.8,1.,4.8,0.,4.8,0.,4.8
1986-01-25 21:10:39.650 ,7,0,0.,4.8,3.,4.8,0.,4.8,0.,4.8
1986-01-25 21:10:44.450 ,7,0,0.,4.8,0.,4.8,0.,4.8,0.,4.8
1986-01-25 21:10:49.250 ,7,0,0.,4.8,1.,4.8,0.,4.8,1.,4.8
1986-01-25 21:10:54.050 ,7,0,0.,4.8,0.,4.8,0.,4.8,0.,4.8
1986-01-25 21:10:58.850 ,7,0,0.,4.8,1.,4.8,0.,4.8,0.,4.8
1986-01-25 21:11:03.650 ,7,0,0.,4.8,0.,4.8,0.,4.8,0.,4.8
1986-01-25 21:11:08.450 ,7,0,0.,4.8,1.,4.8,0.,4.8,0.,4.8
1986-01-25 21:11:13.250 ,7,0,0.,4.8,0.,4.8,0.,4.8,0.,4.8
1986-01-25 21:11:18.050 ,7,0,0.,4.8,0.,4.8,0.,4.8,0.,4.8
1986-01-25 21:11:22.850 ,7,0,0.,4.8,0.,4.8,0.,4.8,0.,4.8
1986-01-25 21:11:27.650 ,7,0,0.,4.8,1.,4.8,0.,4.8,0.,4.8
1986-01-25 21:11:32.450 ,7,0,0.,4.8,0.,4.8,0.,4.8,0.,4.8
1986-01-25 21:11:37.250 ,7,0,0.,4.8,1.,4.8,0.,4.8,0.,4.8
1986-01-25 21:11:42.050 ,7,0,0.,4.8,1.,4.8,0.,4.8,0.,4.8
1986-01-25 21:11:46.850 ,7,0,0.,4.8,2.,4.8,0.,4.8,1.,4.8
1986-01-25 21:11:51.650 ,7,0,0.,4.8,2.,4.8,0.,4.8,0.,4.8
1986-01-25 21:11:56.450 ,7,0,0.,4.8,0.,4.8,0.,4.8,3.,4.8
1986-01-25 21:12:01.250 ,6,0,0.,4.8,1.,4.8,0.,4.8,0.,4.8
1986-01-25 21:12:06.050 ,6,0,0.,4.8,1.,4.8,0.,4.8,0.,4.8
1986-01-25 21:12:10.850 ,6,0,0.,4.8,0.,4.8,0.,4.8,0.,4.8
1986-01-25 21:12:15.650 ,6,0,0.,4.8,1.,4.8,0.,4.8,0.,4.8
1986-01-25 21:12:20.450 ,6,0,0.,4.8,0.,4.8,0.,4.8,0.,4.8
1986-01-25 21:12:25.250 ,6,0,0.,4.8,0.,4.8,0.,4.8,0.,4.8
1986-01-25 21:12:30.050 ,6,0,0.,4.8,1.,4.8,0.,4.8,0.,4.8
1986-01-25 21:12:34.850 ,6,0,0.,4.8,0.,4.8,0.,4.8,0.,4.8
1986-01-25 21:12:39.650 ,6,0,0.,4.8,0.,4.8,0.,4.8,0.,4.8
1986-01-25 21:12:44.450 ,6,0,0.,4.8,1.,4.8,0.,4.8,0.,4.8
1986-01-25 21:12:49.250 ,5,0,0.,4.8,1.,4.8,1.,4.8,0.,4.8
1986-01-25 21:12:54.050 ,5,0,0.,4.8,0.,4.8,0.,4.8,0.,4.8
1986-01-25 21:12:58.850 ,5,0,0.,4.8,2.,4.8,0.,4.8,0.,4.8
1986-01-25 21:13:03.650 ,5,0,0.,4.8,0.,4.8,1.,4.8,0.,4.8
1986-01-25 21:13:08.450 ,5,0,0.,4.8,1.,4.8,0.,4.8,0.,4.8
1986-01-25 21:13:13.250 ,5,0,0.,4.8,1.,4.8,0.,4.8,0.,4.8
1986-01-25 21:13:18.050 ,5,0,0.,4.8,1.,4.8,0.,4.8,0.,4.8
1986-01-25 21:13:22.850 ,5,0,0.,4.8,0.,4.8,0.,4.8,1.,4.8
1986-01-25 21:13:27.650 ,5,0,0.,4.8,0.,4.8,1.,4.8,0.,4.8
1986-01-25 21:13:32.450 ,5,0,0.,4.8,0.,4.8,0.,4.8,0.,4.8
1986-01-25 21:13:37.250 ,4,0,0.,4.8,0.,4.8,0.,4.8,1.,4.8
1986-01-25 21:13:42.050 ,4,0,0.,4.8,0.,4.8,0.,4.8,1.,4.8
1986-01-25 21:13:46.850 ,4,0,0.,4.8,3.,4.8,0.,4.8,0.,4.8
1986-01-25 21:13:51.650 ,4,0,0.,4.8,0.,4.8,0.,4.8,0.,4.8
1986-01-25 21:13:56.450 ,4,0,0.,4.8,1.,4.8,0.,4.8,0.,4.8
1986-01-25 21:14:01.250 ,4,0,0.,4.8,0.,4.8,0.,4.8,0.,4.8
1986-01-25 21:14:06.050 ,4,0,0.,4.8,0.,4.8,0.,4.8,0.,4.8
1986-01-25 21:14:10.850 ,4,0,0.,4.8,1.,4.8,0.,4.8,0.,4.8
1986-01-25 21:14:15.650 ,4,0,0.,4.8,1.,4.8,0.,4.8,0.,4.8
1986-01-25 21:14:20.450 ,4,0,0.,4.8,0.,4.8,0.,4.8,0.,4.8
1986-01-25 21:14:25.250 ,3,0,0.,4.8,0.,4.8,0.,4.8,0.,4.8
1986-01-25 21:14:30.050 ,3,0,0.,4.8,0.,4.8,0.,4.8,0.,4.8
1986-01-25 21:14:34.850 ,3,0,0.,4.8,0.,4.8,0.,4.8,0.,4.8
1986-01-25 21:14:39.650 ,3,0,0.,4.8,0.,4.8,1.,4.8,0.,4.8
1986-01-25 21:14:44.450 ,3,0,0.,4.8,2.,4.8,0.,4.8,0.,4.8
1986-01-25 21:14:49.250 ,3,0,0.,4.8,1.,4.8,0.,4.8,0.,4.8
1986-01-25 21:14:54.050 ,3,0,0.,4.8,1.,4.8,0.,4.8,0.,4.8
1986-01-25 21:14:58.850 ,3,0,0.,4.8,0.,4.8,0.,4.8,0.,4.8
1986-01-25 21:15:03.650 ,3,0,0.,4.8,2.,4.8,0.,4.8,0.,4.8
1986-01-25 21:15:08.450 ,3,0,0.,4.8,0.,4.8,0.,4.8,0.,4.8
1986-01-25 21:15:13.250 ,2,0,0.,4.8,1.,4.8,0.,4.8,0.,4.8
1986-01-25 21:15:18.050 ,2,0,0.,4.8,0.,4.8,1.,4.8,0.,4.8
1986-01-25 21:15:22.850 ,2,0,0.,4.8,1.,4.8,0.,4.8,0.,4.8
1986-01-25 21:15:27.650 ,2,0,0.,4.8,1.,4.8,0.,4.8,1.,4.8
1986-01-25 21:15:32.450 ,2,0,0.,4.8,1.,4.8,0.,4.8,0.,4.8
1986-01-25 21:15:37.250 ,2,0,0.,4.8,0.,4.8,0.,4.8,0.,4.8
1986-01-25 21:15:42.050 ,2,0,0.,4.8,0.,4.8,1.,4.8,0.,4.8
1986-01-25 21:15:46.850 ,2,0,0.,4.8,1.,4.8,0.,4.8,0.,4.8
1986-01-25 21:15:51.650 ,2,0,0.,4.8,0.,4.8,0.,4.8,0.,4.8
1986-01-25 21:15:56.450 ,2,0,0.,4.8,0.,4.8,0.,4.8,0.,4.8
1986-01-25 21:16:01.250 ,1,0,0.,4.8,2.,4.8,0.,4.8,0.,4.8
1986-01-25 21:16:06.050 ,1,0,0.,4.8,0.,4.8,0.,4.8,0.,4.8
1986-01-25 21:16:10.850 ,1,0,0.,4.8,1.,4.8,0.,4.8,0.,4.8
1986-01-25 21:16:15.650 ,1,0,0.,4.8,2.,4.8,0.,4.8,0.,4.8
1986-01-25 21:16:20.450 ,1,0,0.,4.8,0.,4.8,0.,4.8,0.,4.8
1986-01-25 21:16:25.250 ,1,0,0.,4.8,0.,4.8,0.,4.8,0.,4.8
1986-01-25 21:16:30.050 ,1,0,0.,4.8,2.,4.8,0.,4.8,0.,4.8
1986-01-25 21:16:34.850 ,1,0,0.,4.8,0.,4.8,0.,4.8,0.,4.8
1986-01-25 21:16:39.650 ,1,0,0.,4.8,0.,4.8,0.,4.8,0.,4.8
1986-01-25 21:16:44.450 ,1,0,0.,4.8,0.,4.8,0.,4.8,0.,4.8
1986-01-25 21:16:49.250 ,0,0,0.,4.8,0.,4.8,0.,4.8,0.,4.8
1986-01-25 21:16:54.050 ,0,0,0.,4.8,0.,4.8,0.,4.8,1.,4.8
1986-01-25 21:16:58.850 ,0,0,0.,4.8,1.,4.8,0.,4.8,1.,4.8
1986-01-25 21:17:03.650 ,0,0,0.,4.8,1.,4.8,0.,4.8,0.,4.8
1986-01-25 21:17:08.450 ,0,0,0.,4.8,1.,4.8,0.,4.8,0.,4.8
1986-01-25 21:17:13.250 ,0,0,0.,4.8,2.,4.8,0.,4.8,0.,4.8
1986-01-25 21:17:18.050 ,0,0,0.,4.8,2.,4.8,0.,4.8,0.,4.8
1986-01-25 21:17:22.850 ,0,0,0.,4.8,1.,4.8,0.,4.8,0.,4.8
1986-01-25 21:17:27.650 ,0,0,0.,4.8,1.,4.8,0.,4.8,0.,4.8
1986-01-25 21:17:32.450 ,0,0,0.,4.8,0.,4.8,0.,4.8,0.,4.8
1986-01-25 21:17:37.250 ,0,0,0.,4.8,1.,4.8,0.,4.8,0.,4.8
1986-01-25 21:17:42.050 ,0,0,0.,4.8,1.,4.8,0.,4.8,0.,4.8
1986-01-25 21:17:46.850 ,0,0,0.,4.8,1.,4.8,0.,4.8,0.,4.8
1986-01-25 21:17:51.650 ,0,0,0.,4.8,1.,4.8,0.,4.8,0.,4.8
1986-01-25 21:17:56.450 ,0,0,0.,4.8,0.,4.8,0.,4.8,0.,4.8
1986-01-25 21:18:01.250 ,0,0,0.,4.8,0.,4.8,1.,4.8,0.,4.8
1986-01-25 21:18:06.050 ,0,0,0.,4.8,0.,4.8,0.,4.8,0.,4.8
1986-01-25 21:18:10.850 ,0,0,0.,4.8,1.,4.8,0.,4.8,0.,4.8
1986-01-25 21:18:15.650 ,0,0,0.,4.8,0.,4.8,0.,4.8,0.,4.8
1986-01-25 21:18:20.450 ,0,0,0.,4.8,1.,4.8,1.,4.8,0.,4.8
1986-01-25 21:18:25.250 ,1,0,0.,4.8,1.,4.8,0.,4.8,0.,4.8
1986-01-25 21:18:30.050 ,1,0,0.,4.8,0.,4.8,1.,4.8,0.,4.8
1986-01-25 21:18:34.850 ,1,0,0.,4.8,0.,4.8,0.,4.8,0.,4.8
1986-01-25 21:18:39.650 ,1,0,0.,4.8,1.,4.8,0.,4.8,0.,4.8
1986-01-25 21:18:44.450 ,1,0,0.,4.8,0.,4.8,0.,4.8,0.,4.8
1986-01-25 21:18:49.250 ,1,0,0.,4.8,1.,4.8,0.,4.8,0.,4.8
1986-01-25 21:18:54.050 ,1,0,0.,4.8,1.,4.8,0.,4.8,0.,4.8
1986-01-25 21:18:58.850 ,1,0,0.,4.8,0.,4.8,0.,4.8,0.,4.8
1986-01-25 21:19:03.650 ,1,0,0.,4.8,0.,4.8,0.,4.8,0.,4.8
1986-01-25 21:19:08.450 ,1,0,0.,4.8,0.,4.8,0.,4.8,0.,4.8
1986-01-25 21:19:13.250 ,2,0,0.,4.8,0.,4.8,0.,4.8,0.,4.8
1986-01-25 21:19:18.050 ,2,0,0.,4.8,0.,4.8,1.,4.8,0.,4.8
1986-01-25 21:19:22.850 ,2,0,0.,4.8,0.,4.8,0.,4.8,0.,4.8
1986-01-25 21:19:27.650 ,2,0,0.,4.8,3.,4.8,0.,4.8,0.,4.8
1986-01-25 21:19:32.450 ,2,0,0.,4.8,0.,4.8,0.,4.8,0.,4.8
1986-01-25 21:19:37.250 ,2,0,0.,4.8,1.,4.8,0.,4.8,0.,4.8
1986-01-25 21:19:42.050 ,2,0,0.,4.8,0.,4.8,0.,4.8,0.,4.8
1986-01-25 21:19:46.850 ,2,0,0.,4.8,0.,4.8,2.,4.8,0.,4.8
1986-01-25 21:19:51.650 ,2,0,0.,4.8,0.,4.8,0.,4.8,0.,4.8
1986-01-25 21:19:56.450 ,2,0,0.,4.8,0.,4.8,2.,4.8,0.,4.8
1986-01-25 21:20:01.250 ,3,0,0.,4.8,1.,4.8,0.,4.8,0.,4.8
1986-01-25 21:20:06.050 ,3,0,0.,4.8,1.,4.8,0.,4.8,0.,4.8
1986-01-25 21:20:10.850 ,3,0,0.,4.8,0.,4.8,0.,4.8,0.,4.8
1986-01-25 21:20:15.650 ,3,0,0.,4.8,1.,4.8,1.,4.8,1.,4.8
1986-01-25 21:20:20.450 ,3,0,0.,4.8,3.,4.8,0.,4.8,0.,4.8
1986-01-25 21:20:25.250 ,3,0,0.,4.8,0.,4.8,0.,4.8,0.,4.8
1986-01-25 21:20:30.050 ,3,0,0.,4.8,1.,4.8,0.,4.8,0.,4.8
1986-01-25 21:20:34.850 ,3,0,0.,4.8,1.,4.8,1.,4.8,0.,4.8
1986-01-25 21:20:39.650 ,3,0,0.,4.8,2.,4.8,0.,4.8,0.,4.8
1986-01-25 21:20:44.450 ,3,0,0.,4.8,1.,4.8,0.,4.8,0.,4.8
1986-01-25 21:20:49.250 ,4,0,0.,4.8,0.,4.8,0.,4.8,1.,4.8
1986-01-25 21:20:54.050 ,4,0,0.,4.8,0.,4.8,0.,4.8,0.,4.8
1986-01-25 21:20:58.850 ,4,0,0.,4.8,0.,4.8,2.,4.8,0.,4.8
1986-01-25 21:21:03.650 ,4,0,0.,4.8,0.,4.8,0.,4.8,0.,4.8
1986-01-25 21:21:08.450 ,4,0,0.,4.8,0.,4.8,0.,4.8,0.,4.8
1986-01-25 21:21:13.250 ,4,0,0.,4.8,1.,4.8,0.,4.8,0.,4.8
1986-01-25 21:21:18.050 ,4,0,0.,4.8,1.,4.8,0.,4.8,0.,4.8
1986-01-25 21:21:22.850 ,4,0,0.,4.8,0.,4.8,1.,4.8,0.,4.8
1986-01-25 21:21:27.650 ,4,0,0.,4.8,1.,4.8,0.,4.8,0.,4.8
1986-01-25 21:21:32.450 ,4,0,0.,4.8,1.,4.8,0.,4.8,0.,4.8
1986-01-25 21:21:37.250 ,5,0,0.,4.8,1.,4.8,0.,4.8,0.,4.8
1986-01-25 21:21:42.050 ,5,0,0.,4.8,0.,4.8,0.,4.8,0.,4.8
1986-01-25 21:21:46.850 ,5,0,0.,4.8,0.,4.8,0.,4.8,0.,4.8
1986-01-25 21:21:51.650 ,5,0,0.,4.8,0.,4.8,0.,4.8,0.,4.8
1986-01-25 21:21:56.450 ,5,0,0.,4.8,2.,4.8,0.,4.8,0.,4.8
1986-01-25 21:22:01.250 ,5,0,0.,4.8,1.,4.8,0.,4.8,0.,4.8
1986-01-25 21:22:06.050 ,5,0,0.,4.8,0.,4.8,0.,4.8,0.,4.8
1986-01-25 21:22:10.850 ,5,0,0.,4.8,0.,4.8,0.,4.8,0.,4.8
1986-01-25 21:22:15.650 ,5,0,0.,4.8,1.,4.8,0.,4.8,0.,4.8
1986-01-25 21:22:20.450 ,5,0,0.,4.8,2.,4.8,0.,4.8,0.,4.8
1986-01-25 21:22:25.250 ,6,0,0.,4.8,1.,4.8,0.,4.8,0.,4.8
1986-01-25 21:22:30.050 ,6,0,0.,4.8,0.,4.8,0.,4.8,0.,4.8
1986-01-25 21:22:34.850 ,6,0,0.,4.8,2.,4.8,0.,4.8,0.,4.8
1986-01-25 21:22:39.650 ,6,0,0.,4.8,1.,4.8,0.,4.8,0.,4.8
1986-01-25 21:22:44.450 ,6,0,0.,4.8,1.,4.8,0.,4.8,1.,4.8
1986-01-25 21:22:49.250 ,6,0,0.,4.8,1.,4.8,0.,4.8,0.,4.8
1986-01-25 21:22:54.050 ,6,0,0.,4.8,1.,4.8,0.,4.8,0.,4.8
1986-01-25 21:22:58.850 ,6,0,0.,4.8,1.,4.8,0.,4.8,0.,4.8
1986-01-25 21:23:03.650 ,6,0,0.,4.8,1.,4.8,0.,4.8,0.,4.8
1986-01-25 21:23:08.450 ,6,0,0.,4.8,0.,4.8,0.,4.8,0.,4.8
1986-01-25 21:23:13.250 ,7,0,0.,4.8,0.,4.8,0.,4.8,0.,4.8
1986-01-25 21:23:18.050 ,7,0,0.,4.8,0.,4.8,0.,4.8,0.,4.8
1986-01-25 21:23:22.850 ,7,0,0.,4.8,0.,4.8,0.,4.8,0.,4.8
1986-01-25 21:23:27.650 ,7,0,0.,4.8,2.,4.8,0.,4.8,0.,4.8
1986-01-25 21:23:32.450 ,7,0,0.,4.8,0.,4.8,0.,4.8,0.,4.8
1986-01-25 21:23:37.250 ,7,0,0.,4.8,0.,4.8,0.,4.8,0.,4.8
1986-01-25 21:23:42.050 ,7,0,0.,4.8,4.,4.8,0.,4.8,0.,4.8
1986-01-25 21:23:46.850 ,7,0,0.,4.8,0.,4.8,0.,4.8,0.,4.8
1986-01-25 21:23:51.650 ,7,0,0.,4.8,0.,4.8,0.,4.8,0.,4.8
1986-01-25 21:23:56.450 ,7,0,0.,4.8,0.,4.8,0.,4.8,0.,4.8
1986-01-25 21:24:01.250 ,7,0,0.,4.8,0.,4.8,0.,4.8,1.,4.8
1986-01-25 21:24:06.050 ,7,0,0.,4.8,0.,4.8,0.,4.8,0.,4.8
1986-01-25 21:24:10.850 ,7,0,0.,4.8,1.,4.8,0.,4.8,0.,4.8
1986-01-25 21:24:15.650 ,7,0,0.,4.8,1.,4.8,0.,4.8,0.,4.8
1986-01-25 21:24:20.450 ,7,0,0.,4.8,1.,4.8,1.,4.8,0.,4.8
1986-01-25 21:24:25.250 ,7,0,0.,4.8,0.,4.8,0.,4.8,0.,4.8
1986-01-25 21:24:30.050 ,7,0,0.,4.8,1.,4.8,0.,4.8,0.,4.8
1986-01-25 21:24:34.850 ,7,0,0.,4.8,1.,4.8,0.,4.8,0.,4.8
1986-01-25 21:24:39.650 ,7,0,0.,4.8,1.,4.8,0.,4.8,0.,4.8
1986-01-25 21:24:44.450 ,7,0,0.,4.8,0.,4.8,0.,4.8,0.,4.8
1986-01-25 21:24:49.250 ,6,0,0.,4.8,0.,4.8,0.,4.8,0.,4.8
1986-01-25 21:24:54.050 ,6,0,0.,4.8,1.,4.8,0.,4.8,0.,4.8
1986-01-25 21:24:58.850 ,6,0,0.,4.8,0.,4.8,0.,4.8,0.,4.8
1986-01-25 21:25:03.650 ,6,0,0.,4.8,2.,4.8,0.,4.8,0.,4.8
1986-01-25 21:25:08.450 ,6,0,0.,4.8,0.,4.8,0.,4.8,1.,4.8
1986-01-25 21:25:13.250 ,6,0,0.,4.8,0.,4.8,0.,4.8,0.,4.8
1986-01-25 21:25:18.050 ,6,0,0.,4.8,1.,4.8,0.,4.8,0.,4.8
1986-01-25 21:25:22.850 ,6,0,0.,4.8,1.,4.8,0.,4.8,0.,4.8
1986-01-25 21:25:27.650 ,6,0,0.,4.8,1.,4.8,0.,4.8,0.,4.8
1986-01-25 21:25:32.450 ,6,0,0.,4.8,1.,4.8,0.,4.8,0.,4.8
1986-01-25 21:25:37.250 ,5,0,0.,4.8,1.,4.8,0.,4.8,0.,4.8
1986-01-25 21:25:42.050 ,5,0,0.,4.8,1.,4.8,1.,4.8,0.,4.8
1986-01-25 21:25:46.850 ,5,0,0.,4.8,0.,4.8,0.,4.8,0.,4.8
1986-01-25 21:25:51.650 ,5,0,0.,4.8,0.,4.8,0.,4.8,0.,4.8
1986-01-25 21:25:56.450 ,5,0,0.,4.8,1.,4.8,0.,4.8,0.,4.8
1986-01-25 21:26:01.250 ,5,0,0.,4.8,1.,4.8,0.,4.8,0.,4.8
1986-01-25 21:26:06.050 ,5,0,0.,4.8,1.,4.8,0.,4.8,0.,4.8
1986-01-25 21:26:10.850 ,5,0,0.,4.8,1.,4.8,0.,4.8,0.,4.8
1986-01-25 21:26:15.650 ,5,0,0.,4.8,0.,4.8,0.,4.8,0.,4.8
1986-01-25 21:26:20.450 ,5,0,0.,4.8,1.,4.8,0.,4.8,0.,4.8
1986-01-25 21:26:25.250 ,4,0,0.,4.8,0.,4.8,0.,4.8,1.,4.8
1986-01-25 21:26:30.050 ,4,0,0.,4.8,0.,4.8,0.,4.8,0.,4.8
1986-01-25 21:26:34.850 ,4,0,0.,4.8,1.,4.8,0.,4.8,0.,4.8
1986-01-25 21:26:39.650 ,4,0,0.,4.8,1.,4.8,0.,4.8,0.,4.8
1986-01-25 21:26:44.450 ,4,0,0.,4.8,1.,4.8,0.,4.8,0.,4.8
1986-01-25 21:26:49.250 ,4,0,0.,4.8,1.,4.8,0.,4.8,0.,4.8
1986-01-25 21:26:54.050 ,4,0,0.,4.8,0.,4.8,0.,4.8,0.,4.8
1986-01-25 21:26:58.850 ,4,0,0.,4.8,0.,4.8,0.,4.8,0.,4.8
1986-01-25 21:27:03.650 ,4,0,0.,4.8,0.,4.8,0.,4.8,0.,4.8
1986-01-25 21:27:08.450 ,4,0,0.,4.8,1.,4.8,1.,4.8,0.,4.8
1986-01-25 21:27:13.250 ,3,0,0.,4.8,1.,4.8,0.,4.8,0.,4.8
1986-01-25 21:27:18.050 ,3,0,0.,4.8,0.,4.8,0.,4.8,0.,4.8
1986-01-25 21:27:22.850 ,3,0,0.,4.8,0.,4.8,0.,4.8,0.,4.8
1986-01-25 21:27:27.650 ,3,0,0.,4.8,1.,4.8,0.,4.8,0.,4.8
1986-01-25 21:27:32.450 ,3,0,0.,4.8,1.,4.8,1.,4.8,0.,4.8
1986-01-25 21:27:37.250 ,3,0,0.,4.8,2.,4.8,1.,4.8,0.,4.8
1986-01-25 21:27:42.050 ,3,0,0.,4.8,0.,4.8,0.,4.8,0.,4.8
1986-01-25 21:27:46.850 ,3,0,0.,4.8,0.,4.8,0.,4.8,0.,4.8
1986-01-25 21:27:51.650 ,3,0,0.,4.8,1.,4.8,0.,4.8,0.,4.8
1986-01-25 21:27:56.450 ,3,0,0.,4.8,1.,4.8,0.,4.8,0.,4.8
1986-01-25 21:28:01.250 ,2,0,0.,4.8,0.,4.8,0.,4.8,0.,4.8
1986-01-25 21:28:06.050 ,2,0,0.,4.8,0.,4.8,1.,4.8,0.,4.8
1986-01-25 21:28:10.850 ,2,0,0.,4.8,0.,4.8,1.,4.8,0.,4.8
1986-01-25 21:28:15.650 ,2,0,0.,4.8,0.,4.8,1.,4.8,0.,4.8
1986-01-25 21:28:20.450 ,2,0,0.,4.8,0.,4.8,0.,4.8,0.,4.8
1986-01-25 21:28:25.250 ,2,0,0.,4.8,0.,4.8,0.,4.8,0.,4.8
1986-01-25 21:28:30.050 ,2,0,0.,4.8,0.,4.8,2.,4.8,0.,4.8
1986-01-25 21:28:34.850 ,2,0,0.,4.8,1.,4.8,0.,4.8,0.,4.8
1986-01-25 21:28:39.650 ,2,0,0.,4.8,0.,4.8,0.,4.8,0.,4.8
1986-01-25 21:28:44.450 ,2,0,0.,4.8,1.,4.8,1.,4.8,0.,4.8
1986-01-25 21:28:49.250 ,1,0,0.,4.8,2.,4.8,0.,4.8,0.,4.8
1986-01-25 21:28:54.050 ,1,0,0.,4.8,1.,4.8,0.,4.8,0.,4.8
1986-01-25 21:28:58.850 ,1,0,0.,4.8,1.,4.8,0.,4.8,0.,4.8
1986-01-25 21:29:03.650 ,1,0,0.,4.8,0.,4.8,0.,4.8,0.,4.8
1986-01-25 21:29:08.450 ,1,0,0.,4.8,1.,4.8,0.,4.8,0.,4.8
1986-01-25 21:29:13.250 ,1,0,0.,4.8,0.,4.8,0.,4.8,0.,4.8
1986-01-25 21:29:18.050 ,1,0,0.,4.8,1.,4.8,0.,4.8,0.,4.8
1986-01-25 21:29:22.850 ,1,0,0.,4.8,0.,4.8,0.,4.8,0.,4.8
1986-01-25 21:29:27.650 ,1,0,0.,4.8,1.,4.8,1.,4.8,0.,4.8
1986-01-25 21:29:32.450 ,1,0,0.,4.8,2.,4.8,0.,4.8,0.,4.8
1986-01-25 21:29:37.250 ,0,0,0.,4.8,1.,4.8,0.,4.8,0.,4.8
1986-01-25 21:29:42.050 ,0,0,0.,4.8,1.,4.8,0.,4.8,0.,4.8
1986-01-25 21:29:46.850 ,0,0,0.,4.8,2.,4.8,1.,4.8,0.,4.8
1986-01-25 21:29:51.650 ,0,0,0.,4.8,0.,4.8,0.,4.8,0.,4.8
1986-01-25 21:29:56.450 ,0,0,0.,4.8,3.,4.8,1.,4.8,0.,4.8
1986-01-25 21:30:01.250 ,0,0,0.,4.8,1.,4.8,1.,4.8,0.,4.8
1986-01-25 21:30:06.050 ,0,0,0.,4.8,1.,4.8,0.,4.8,0.,4.8
1986-01-25 21:30:10.850 ,0,0,0.,4.8,1.,4.8,0.,4.8,0.,4.8
1986-01-25 21:30:15.650 ,0,0,0.,4.8,0.,4.8,0.,4.8,0.,4.8
1986-01-25 21:30:20.450 ,0,0,0.,4.8,0.,4.8,1.,4.8,0.,4.8
1986-01-25 21:30:25.250 ,0,0,0.,4.8,1.,4.8,0.,4.8,0.,4.8
1986-01-25 21:30:30.050 ,0,0,0.,4.8,2.,4.8,0.,4.8,0.,4.8
1986-01-25 21:30:34.850 ,0,0,0.,4.8,1.,4.8,1.,4.8,0.,4.8
1986-01-25 21:30:39.650 ,0,0,0.,4.8,1.,4.8,1.,4.8,0.,4.8
1986-01-25 21:30:44.450 ,0,0,0.,4.8,1.,4.8,1.,4.8,0.,4.8
1986-01-25 21:30:49.250 ,0,0,0.,4.8,1.,4.8,0.,4.8,0.,4.8
1986-01-25 21:30:54.050 ,0,0,0.,4.8,0.,4.8,0.,4.8,0.,4.8
1986-01-25 21:30:58.850 ,0,0,0.,4.8,1.,4.8,0.,4.8,0.,4.8
1986-01-25 21:31:03.650 ,0,0,0.,4.8,1.,4.8,0.,4.8,0.,4.8
1986-01-25 21:31:08.450 ,0,0,0.,4.8,1.,4.8,0.,4.8,0.,4.8
1986-01-25 21:31:13.250 ,1,0,0.,4.8,0.,4.8,0.,4.8,0.,4.8
1986-01-25 21:31:18.050 ,1,0,0.,4.8,0.,4.8,0.,4.8,0.,4.8
1986-01-25 21:31:22.850 ,1,0,0.,4.8,0.,4.8,1.,4.8,0.,4.8
1986-01-25 21:31:27.650 ,1,0,0.,4.8,0.,4.8,0.,4.8,0.,4.8
1986-01-25 21:31:32.450 ,1,0,0.,4.8,1.,4.8,0.,4.8,0.,4.8
1986-01-25 21:31:37.250 ,1,0,0.,4.8,0.,4.8,0.,4.8,0.,4.8
1986-01-25 21:31:42.050 ,1,0,0.,4.8,1.,4.8,0.,4.8,0.,4.8
1986-01-25 21:31:46.850 ,1,0,0.,4.8,0.,4.8,0.,4.8,0.,4.8
1986-01-25 21:31:51.650 ,1,0,0.,4.8,0.,4.8,0.,4.8,0.,4.8
1986-01-25 21:31:56.450 ,1,0,0.,4.8,0.,4.8,0.,4.8,0.,4.8
1986-01-25 21:32:01.250 ,2,0,0.,4.8,2.,4.8,0.,4.8,0.,4.8
1986-01-25 21:32:06.050 ,2,0,0.,4.8,0.,4.8,0.,4.8,0.,4.8
1986-01-25 21:32:10.850 ,2,0,0.,4.8,0.,4.8,0.,4.8,1.,4.8
1986-01-25 21:32:15.650 ,2,0,0.,4.8,1.,4.8,0.,4.8,0.,4.8
1986-01-25 21:32:20.450 ,2,0,0.,4.8,1.,4.8,0.,4.8,0.,4.8
1986-01-25 21:32:25.250 ,2,0,0.,4.8,2.,4.8,0.,4.8,0.,4.8
1986-01-25 21:32:30.050 ,2,0,0.,4.8,0.,4.8,0.,4.8,1.,4.8
1986-01-25 21:32:34.850 ,2,0,0.,4.8,0.,4.8,0.,4.8,0.,4.8
1986-01-25 21:32:39.650 ,2,0,0.,4.8,1.,4.8,0.,4.8,0.,4.8
1986-01-25 21:32:44.450 ,2,0,0.,4.8,0.,4.8,0.,4.8,0.,4.8
1986-01-25 21:32:49.250 ,3,0,0.,4.8,0.,4.8,0.,4.8,0.,4.8
1986-01-25 21:32:54.050 ,3,0,0.,4.8,1.,4.8,0.,4.8,0.,4.8
1986-01-25 21:32:58.850 ,3,0,0.,4.8,0.,4.8,0.,4.8,0.,4.8
1986-01-25 21:33:03.650 ,3,0,0.,4.8,2.,4.8,0.,4.8,0.,4.8
1986-01-25 21:33:08.450 ,3,0,0.,4.8,0.,4.8,0.,4.8,0.,4.8
1986-01-25 21:33:13.250 ,3,0,0.,4.8,0.,4.8,0.,4.8,0.,4.8
1986-01-25 21:33:18.050 ,3,0,0.,4.8,1.,4.8,0.,4.8,0.,4.8